Location: Dyersburg
(36.0438°N, 89.3789°W)
Time: 01:36:24
(UTC+00:00)

Explorer 7 - All Passes

Search period start: 29 February 2020 00:00
Search period end: 10 March 2020 00:00
Orbit: 485 x 679 km, 50.3° (Epoch: 28 February)

Date Brightness Start Highest point End Pass type
(mag) Time Alt. Az. Time Alt. Az. Time Alt. Az.
29 Feb - 13:27:34 10° S 13:31:37 26° SE 13:35:37 10° ENE daylight
29 Feb - 15:07:14 10° WSW 15:12:02 55° NW 15:16:41 10° NE daylight
29 Feb - 16:50:08 10° WNW 16:53:25 18° NNW 16:56:37 10° NNE daylight
29 Feb - 18:33:14 10° NNW 18:35:29 13° N 18:37:42 10° NNE daylight
29 Feb - 20:13:38 10° NNW 20:17:21 25° NNE 20:20:52 10° E daylight
29 Feb - 21:53:58 10° WNW 21:58:11 60° SW 22:02:08 10° SE daylight
01 Mar - 13:31:44 10° SSW 13:36:22 43° SE 13:40:56 10° ENE daylight
01 Mar - 15:12:30 10° W 15:17:03 37° NNW 15:21:27 10° NE daylight
01 Mar - 16:55:53 10° NW 16:58:41 15° NNW 17:01:26 10° NNE daylight
01 Mar - 18:38:13 10° NNW 18:40:49 15° N 18:43:21 10° NE daylight
01 Mar - 20:18:21 10° NW 20:22:28 36° NNE 20:26:19 10° E daylight
01 Mar - 21:59:06 10° WNW 22:02:57 33° SW 22:06:36 10° SSE daylight
02 Mar - 12:00:21 10° SE 12:01:13 10° SE 12:02:06 10° ESE visible
02 Mar - 13:36:18 10° SW 13:41:11 71° SE 13:46:00 10° NE daylight
02 Mar - 15:17:58 10° W 15:22:08 27° NNW 15:26:12 10° NNE daylight
02 Mar - 17:01:31 10° NW 17:04:00 14° N 17:06:26 10° NNE daylight
02 Mar - 18:43:02 10° NNW 18:46:06 17° NNE 18:49:04 10° ENE daylight
02 Mar - 20:23:07 10° NW 20:27:30 56° NE 20:31:34 10° ESE daylight
02 Mar - 22:04:36 10° W 22:07:39 19° SW 22:10:34 10° S daylight
03 Mar - 12:02:30 10° S 12:05:51 18° SE 12:09:12 10° E daylight
03 Mar - 13:41:10 10° WSW 13:46:05 74° NW 13:50:54 10° NE daylight
03 Mar - 15:23:35 10° WNW 15:27:19 21° NNW 15:30:57 10° NNE daylight
03 Mar - 17:06:58 10° NNW 17:09:20 14° N 17:11:41 10° NNE daylight
03 Mar - 18:47:47 10° NNW 18:51:20 22° NNE 18:54:45 10° ENE daylight
03 Mar - 20:27:59 10° NW 20:32:26 88° SSW 20:36:34 10° SE daylight
03 Mar - 22:11:23 10° WSW 22:12:16 11° SW 22:13:08 10° SW daylight
04 Mar - 12:06:17 10° SSW 12:10:33 30° SE 12:14:49 10° ENE daylight
04 Mar - 13:46:17 10° WSW 13:51:03 49° NNW 13:55:44 10° NE daylight
04 Mar - 15:29:18 10° WNW 15:32:33 18° NNW 15:35:44 10° NNE daylight
04 Mar - 17:12:07 10° NNW 17:14:41 14° N 17:17:11 10° NE daylight
04 Mar - 18:52:29 10° NW 18:56:30 29° NNE 19:00:18 10° E daylight
04 Mar - 20:32:58 10° WNW 20:37:16 51° SW 20:41:16 10° SSE daylight
05 Mar - 12:10:35 10° SSW 12:15:19 50° SE 12:20:02 10° ENE daylight
05 Mar - 13:51:37 10° W 13:56:05 34° NNW 14:00:30 10° NE daylight
05 Mar - 15:35:00 10° NW 15:37:50 15° N 15:40:38 10° NNE daylight
05 Mar - 17:17:03 10° NNW 17:19:59 16° NNE 17:22:50 10° NE daylight
05 Mar - 18:57:14 10° NW 19:01:35 42° NNE 19:05:40 10° ESE daylight
05 Mar - 20:38:11 10° WNW 20:42:00 29° SW 20:45:37 10° SSE daylight
06 Mar - 10:38:03 10° SSE 10:40:08 13° SE 10:42:12 10° E visible
06 Mar - 12:15:15 10° SW 12:20:08 82° SE 12:25:03 10° NE daylight
06 Mar - 13:57:07 10° W 14:01:13 26° NNW 14:05:15 10° NNE daylight
06 Mar - 15:40:34 10° NW 15:43:10 14° N 15:45:43 10° NNE daylight
06 Mar - 17:21:52 10° NNW 17:25:15 19° NNE 17:28:33 10° ENE daylight
06 Mar - 19:02:01 10° NW 19:06:36 66° NE 19:10:50 10° ESE daylight
06 Mar - 20:43:50 10° W 20:46:40 17° SW 20:49:24 10° SSW daylight
07 Mar - 10:41:05 10° S 10:44:46 22° SE 10:48:29 10° E visible
07 Mar - 12:20:11 10° WSW 12:25:03 65° NW 12:29:56 10° NE daylight
07 Mar - 14:02:46 10° WNW 14:06:24 20° NNW 14:10:00 10° NNE daylight
07 Mar - 15:45:55 10° NNW 15:48:30 14° N 15:51:03 10° NE daylight
07 Mar - 17:26:37 10° NNW 17:30:28 25° NNE 17:34:10 10° ENE daylight
07 Mar - 19:06:56 10° NW 19:11:29 76° SW 19:15:44 10° SE daylight
08 Mar - 10:45:04 10° SSW 10:49:29 35° SE 10:53:57 10° ENE visible
08 Mar - 12:25:22 10° WSW 12:30:03 43° NNW 12:34:44 10° NE daylight
08 Mar - 14:08:27 10° NW 14:11:40 17° NNW 14:14:50 10° NNE daylight
08 Mar - 15:51:01 10° NNW 15:53:50 15° N 15:56:36 10° NE daylight
08 Mar - 17:31:21 10° NW 17:35:37 33° NNE 17:39:39 10° E daylight
08 Mar - 19:11:58 10° WNW 19:16:18 44° SW 19:20:21 10° SSE daylight
09 Mar - 10:49:29 10° SW 10:54:15 59° SE 10:59:05 10° ENE visible
09 Mar - 12:30:45 10° W 12:35:07 31° NNW 12:39:29 10° NE daylight
09 Mar - 14:14:06 10° NW 14:16:58 15° N 14:19:48 10° NNE daylight
09 Mar - 15:55:55 10° NNW 15:59:08 18° NNE 16:02:17 10° ENE daylight
09 Mar - 17:36:07 10° NW 17:40:40 49° NNE 17:44:58 10° ESE daylight
09 Mar - 19:17:16 10° WNW 19:21:00 26° SW 19:24:34 10° S daylight
